Location: D�nning
(49.2479°N, 12.8491°E)
Time: 06:18:11
(UTC+00:00)

ATLAS 3B R/B - Pass Details

Date: 18 September 2020
Orbit: 1016 x 1179 km, 63.8° (Epoch: 04 October)

Event Time Altitude Azimuth Distance (km) Brightness Sun altitude
Rises 21:22:09 0° 317° (NW) 3,835 6.6 -34.9°
Reaches altitude 10° 21:24:47 10° 313° (NW) 2,898 5.7 -35.1°
Enters shadow 21:30:03 48° 278° (W) 1,390 3.3 -35.6°
